GW6354 Weather Reports


time (UTC)temp
C
wind
direction
speed
KPH
gust
KPH
rain 1hr
cm
rain 24hr
cm
rain mn
cm
humidity
%
barometer
mb
20260502231521 8 123 4.8 4.8 0.00 0.20 0.00 79 1020.8
20260502230544 9 135 3.2 4.8 0.00 0.20 0.00 78 1020.8
20260502225557 9 108 4.8 4.8 0.00 0.20 0.00 77 1020.8
20260502224519 10 143 8.0 9.7 0.00 0.20 0.00 76 1020.9
20260502223522 10 145 6.4 6.4 0.00 0.20 0.00 77 1020.9
20260502222514 9 96 3.2 4.8 0.00 0.20 0.00 79 1021.0
20260502221537 10 144 4.8 4.8 0.00 0.20 0.00 74 1021.0
20260502220520 10 92 3.2 4.8 0.00 0.20 0.00 76 1021.1
20260502215523 10 117 4.8 4.8 0.00 0.20 0.20 75 1021.0
20260502214535 10 142 4.8 6.4 0.00 0.20 0.20 75 1021.0
20260502213518 11 139 3.2 4.8 0.00 0.20 0.20 72 1021.1
20260502212520 11 126 4.8 6.4 0.00 0.20 0.20 73 1021.1
20260502211523 11 114 3.2 3.2 0.00 0.20 0.20 71 1021.1
20260502210515 11 133 6.4 8.0 0.00 0.20 0.20 69 1021.0
20260502205538 12 123 3.2 4.8 0.00 0.20 0.20 68 1021.1
20260502204520 12 101 6.4 8.0 0.00 0.20 0.20 66 1021.2
20260502203522 12 104 6.4 6.4 0.00 0.20 0.20 64 1021.2
20260502202516 13 159 3.2 4.8 0.00 0.20 0.20 63 1021.2
20260502201558 13 165 6.4 6.4 0.00 0.20 0.20 61 1021.2
20260502200520 14 110 3.2 4.8 0.00 0.20 0.20 58 1021.2
20260502195522 14 81 0.0 1.6 0.00 0.20 0.20 57 1021.3
20260502194515 15 249 1.6 1.6 0.00 0.20 0.20 57 1021.2
20260502193518 15 88 1.6 1.6 0.00 0.20 0.20 56 1021.0
20260502192600 14 12 1.6 1.6 0.00 0.20 0.20 59 1021.0
20260502191542 14 123 3.2 3.2 0.00 0.20 0.20 59 1020.9
20260502190515 16 232 4.8 4.8 0.00 0.20 0.20 50 1020.9
20260502185537 16 293 6.4 6.4 0.03 0.20 0.20 49 1020.9
20260502184520 18 243 4.8 6.4 0.03 0.20 0.20 41 1020.8
20260502183543 17 272 1.6 4.8 0.03 0.20 0.20 42 1020.6
20260502182515 18 279 3.2 3.2 0.03 0.20 0.20 41 1020.6
20260502181537 18 62 1.6 3.2 0.03 0.20 0.18 39 1020.5
20260502180540 18 54 1.6 1.6 0.00 0.20 0.18 40 1020.5
20260502170515 20 188 8.0 11.3 0.05 0.20 0.18 38 1020.4
20260502163543 21 222 11.3 14.5 0.00 0.15 0.13 39 1020.5
20260502162515 21 217 11.3 14.5 0.00 0.15 0.13 38 1020.5
20260502161517 21 221 9.7 14.5 0.00 0.15 0.10 35 1020.4
20260502160520 21 223 19.3 25.7 0.00 0.15 0.10 39 1020.5
20260502151523 22 229 12.9 16.1 0.00 0.15 0.10 32 1020.8
20260502150515 22 231 11.3 16.1 0.00 0.15 0.10 34 1020.9
20260502130515 23 284 16.1 22.5 0.00 0.15 0.08 28 1021.9
20260502123623 23 262 17.7 22.5 0.00 0.15 0.08 28 1022.3
20260502122515 23 257 20.9 29.0 0.00 0.15 0.08 29 1022.4
20260502121517 22 245 17.7 22.5 0.03 0.15 0.08 32 1022.5
20260502120520 23 254 20.9 24.1 0.03 0.15 0.08 31 1022.6
20260502115523 22 247 19.3 22.5 0.03 0.15 0.08 29 1022.8
20260502114535 22 258 12.9 17.7 0.03 0.15 0.08 31 1023.0
20260502113518 22 297 6.4 9.7 0.03 0.15 0.08 27 1023.0
20260502112521 22 226 12.9 17.7 0.03 0.15 0.08 30 1023.1
20260502111523 22 0.0 0.0 0.00 0.13 0.05 29 1023.2
20260502110516 22 241 14.5 19.3 0.00 0.13 0.05 28 1023.3
20260502105518 22 275 16.1 19.3 0.00 0.15 0.05 31 1023.4
20260502104541 22 315 8.0 12.9 0.00 0.15 0.05 28 1023.6
20260502103523 22 240 19.3 22.5 0.00 0.15 0.05 29 1023.7
20260502102516 21 271 9.7 17.7 0.00 0.15 0.05 32 1023.8
20260502101519 21 253 12.9 17.7 0.00 0.15 0.05 29 1024.0
20260502100541 22 257 14.5 19.3 0.00 0.15 0.05 32 1024.1
20260502091524 21 328 6.4 9.7 0.03 0.15 0.05 32 1024.6
20260502090517 20 244 9.7 14.5 0.03 0.15 0.05 35 1024.7
20260502071515 15 123 6.4 9.7 0.00 0.13 0.00 51 1025.5
20260502070518 15 59 3.2 4.8 0.00 0.13 0.00 51 1025.5
20260502065541 14 124 6.4 8.0 0.00 0.13 0.00 55 1025.6
20260502064524 13 118 4.8 6.4 0.00 0.13 0.00 56 1025.8
20260502063518 13 91 4.8 6.4 0.00 0.13 0.00 57 1025.8
20260502062542 12 120 6.4 6.4 0.00 0.13 0.00 60 1025.9
20260502061517 11 141 6.4 9.7 0.00 0.13 0.00 64 1025.9
20260502060521 10 157 9.7 11.3 0.00 0.13 0.00 68 1025.9
20260502055515 10 126 6.4 9.7 0.00 0.13 0.00 67 1025.9
20260502054519 10 124 6.4 8.0 0.00 0.13 0.00 71 1026.0
20260502053543 9 125 11.3 12.9 0.00 0.13 0.00 71 1025.9
20260502052538 8 117 8.0 9.7 0.00 0.13 0.00 78 1026.0
20260502051522 7 108 3.2 4.8 0.00 0.13 0.00 80 1026.0
20260502050516 7 124 4.8 6.4 0.00 0.13 0.00 83 1026.0
20260502045520 6 104 3.2 4.8 0.00 0.13 0.00 85 1026.0
20260502044515 5 101 1.6 1.6 0.00 0.13 0.00 89 1026.0
20260502043520 6 145 6.4 8.0 0.00 0.13 0.00 83 1025.9
20260502042523 5 92 4.8 4.8 0.00 0.13 0.00 87 1025.9
20260502041538 5 131 3.2 3.2 0.00 0.13 0.00 88 1026.0
20260502040522 5 125 3.2 3.2 0.00 0.13 0.00 88 1026.0
20260502035516 5 137 3.2 4.8 0.00 0.13 0.00 85 1025.9
20260502034540 5 163 8.0 8.0 0.00 0.15 0.00 90 1026.0
20260502033535 5 173 6.4 6.4 0.00 0.15 0.00 82 1025.9
20260502032519 5 173 3.2 3.2 0.00 0.15 0.00 86 1025.9
20260502031543 5 168 1.6 1.6 0.00 0.15 0.00 87 1025.8
20260502030517 5 104 4.8 4.8 0.00 0.15 0.00 85 1025.8
20260502025522 6 109 3.2 4.8 0.00 0.15 0.00 84 1025.9
20260502024516 6 98 4.8 4.8 0.00 0.15 0.00 86 1025.9
20260502023520 5 139 4.8 4.8 0.00 0.15 0.00 86 1026.0
20260502022514 6 132 6.4 8.0 0.00 0.15 0.00 85 1026.0
20260502021519 6 132 6.4 6.4 0.00 0.15 0.00 85 1026.0
20260502020523 6 121 6.4 8.0 0.00 0.15 0.00 86 1025.9
20260502015518 5 169 3.2 3.2 0.00 0.15 0.00 85 1025.9
20260502014522 7 148 6.4 6.4 0.00 0.15 0.00 77 1026.0
20260502013516 7 109 4.8 4.8 0.00 0.15 0.00 77 1026.0
20260502012521 7 126 3.2 3.2 0.00 0.15 0.00 75 1026.1
20260502011515 7 350 1.6 1.6 0.00 0.15 0.00 79 1026.2
20260502010519 7 112 4.8 6.4 0.00 0.15 0.00 78 1026.1
20260502005524 7 129 8.0 8.0 0.00 0.15 0.00 76 1026.2
20260502004518 7 161 4.8 6.4 0.00 0.15 0.00 76 1026.2
20260502003542 7 139 4.8 4.8 0.00 0.15 0.00 80 1026.2
20260502002516 7 106 4.8 4.8 0.00 0.15 0.00 78 1026.4
20260502001521 7 128 4.8 4.8 0.00 0.15 0.00 76 1026.5
20260502000515 7 111 8.0 9.7 0.00 0.15 0.00 75 1026.4
20260501235520 7 139 3.2 4.8 0.00 0.15 0.00 76 1026.4
20260501234524 8 115 4.8 4.8 0.00 0.15 0.00 73 1026.5
20260501233518 8 125 4.8 4.8 0.00 0.15 0.00 73 1026.5
20260501232522 8 163 4.8 4.8 0.00 0.15 0.00 71 1026.5